Location: Baia Mare
(47.6567°N, 23.5850°E)
Time: 00:31:32
(UTC+03:00)

ISS - Pass Details

Date: 23 July 2018
Orbit: 402 x 408 km, 51.6° (Epoch: 16 July)

Event Time Altitude Azimuth Distance (km) Brightness Sun altitude
Rises 02:16:03 0° 293° (WNW) 2,328 0.2 -21.5°
Reaches altitude 10° 02:18:09 10° 296° (WNW) 1,467 -0.9 -21.4°
Enters shadow 02:20:48 51° 321° (NW) 519 -3.2 -21.3°
